TITAN 3C TRANSTAGE DEB, 20672

Orbit data source: Space-Track

TITAN 3C TRANSTAGE DEB, 20672 is space debris in HEO originally from a launch on Tue, 21 Dec 1965 UTC launched from the Air Force Eastern Test Range (AFETR). Debris objects in space refer to the collection of defunct objects orbiting the Earth. Examples of debris include non-operational satellites, rocket bodies, and fragments generated from explosions, collisions, or faulty payload assembly.

Loading next visibility...
TITAN 3C TRANSTAGE DEB details
Identifier
20672, 1965-108AD
Orbit
HEO
Last TLE update2 weeks ago
Origin
Flag of USUSAF SSD (US)
ManufacturerUnknown
MissionSpacecraft
Bus & MotorUnknown
MassUnknown
Launch date (UTC)
1965-12-21 (59 years ago)
Launch vehicleUnknown
Launch site
Air Force Eastern Test Range (AFETR)
Object type
Payload
Rocket body
Debris
Shape & HBRUnknown
Radar Cross SectionSmall (<0.1 m²)

Expand to show TLE details & history

TLE from 2 weeks ago
0 TITAN 3C TRANSTAGE DEB
1 20672U 65108AD  24338.40019788  .00000102  00000-0  10977-2 0  9993
2 20672  26.8447  86.0495 6794337 279.0367  22.2199  2.69955893 32371
Epoch: 2024-12-03T09:36Z
Definitive object data (Epoch: 2024-12-03T09:36:17.096Z)
Latitude7.61927°
Longitude-115.55254°
Altitude6,583.436 km
Speed6.573 km/s
True Right ascension06h 44m 54s
True Declination7° 35' 40"
Sunlit
Object was in daylight at TLE epoch
Visualization TLE readout
Latitude25.40221°
Longitude-24.76391°
Altitude30,149.658 km
Speed1.879 km/s
Apparent Right ascension12h 22m 32s
Apparent Declination17° 48' 50"
Sunlit
Object is in daylight
Visualization observer readout
Local Sidereal Time21:08:39
Azimuth311.908° NW
Elevation-16.728°
Doppler factor1
Orbital elements
Apogee altitude30,218.449 km
Perigee altitude607.332 km
Semi-major axis21,791.027 km
Eccentricity0.6794337
Inclination26.8447°
RAAN86.0495°
Arg. of periapsis279.0367°
True anomaly98.19035°
Mean anomaly22.2199°
Eccentric anomaly53.5218°
Mean motion0.67472 °/min
BSTAR0.0010977
Orbital period533.55 mins
Loading maneuver chart data...

TITAN 3C TRANSTAGE DEB Visibility forecast

Observer location: undefined°, undefined

Span
Click to sort rows by Start time (UTC) header in descending order
Start Az.
Max El. time (UTC)
Max El. Az.
Max El.
End time (UTC)
End Az.
466 mins2024-12-14 12:24:44.101Z257.117° W2024-12-14 14:44:44.101Z249.093° W40.204°2024-12-14 20:10:44.101Z188.692° SSW
|